Погода в Чандидасе

Индонезия     8°28′36″S   115°37′12″E
темп.,
°C
ветер,
м/с
пор.,
м/с
влажн.,
%
обл.,
%
осадки,
мм/ч
давл.,
гПа
погр.,
м
5 декабря, вс
вс523:00+23сз1191100 1.2 101232
02:00+23зсз2193100 3.3 100941
05:00+23зсз1191100 0.4 100935
08:00+26з1181100 0.5 1011171
11:00+30ююв116258 0.4 10101000
14:00+28ююв227576 2.0 1007801
17:00+26юз1283100 2.4 1008531
20:00+24ссз0192100 7.2 101027
6 декабря, пн
пн623:00+23зсз1294100 1.8 101086
02:00+23зсз3893100 3.1 1008442
05:00+23зсз2696100 4.6 1009278
08:00+23з3797100 14.3 1011405
11:00+23зсз3692100 4.0 1009263
14:00+24зсз1190100 4.2 1007111
17:00+23зсз129198 0.1 1008113
20:00+23сз2287100 0.2 101046
7 декабря, вт
вт723:00+22сз2388100 0.9 101067
02:00+23зсз3789100 1.2 1008195
05:00+22зсз249197 1.2 100880
08:00+24з368987 1.7 1010308
11:00+29зюз4566100 0.8 1009992
14:00+29юз3468100 2.0 10081219
17:00+26зюз3583100 2.6 1008533
20:00+23зсз2395100 6.0 101079
8 декабря, ср
ср823:00+23зсз229185 1.1 101150
02:00+23зсз228964 1.3 100954
05:00+23сз228854 0.0 100949
08:00+27з13737 0.0 1011346
11:00+30ю235788 0.1 10101409
14:00+29ююв227124 1.6 1008862
17:00+27ю127415 1.1 1009763
20:00+24зсз119168 1.3 101149
9 декабря, чт
чт923:00+23зсз228896 0.0 101266
02:00+23зсз238978 0.0 100994
05:00+23зсз238921 0.0 101086
08:00+27з247387 0.0 1011600
11:00+29ююз346348 0.0 10101191
14:00+28ююз347199 0.9 1008950
17:00+27ююз237875 1.9 1008688
20:00+23з239346 3.6 101189